SWA2120 KDEN-KTUS

Flight info

Callsign SWA2120
Flight time 1h 27m
Altitude 36000
Route SUDDZ1 SUDDZ ABQ SSO ZONNA2
Aircraft B738/M-SADE2E3GIJ4RWZ/LB1D1

Departure

Time 2026-05-08 00:13
Airport Denver International Airport (KDEN)

Arrival

Time 2026-05-08 01:40
Airport Tucson International Airport (KTUS)
Time Latitude Longitude Altitude Speed Heading
2026-05-07 23:35 39.86363 -104.67256 5365 ft 0 kts 181°
2026-05-07 23:58 39.86367 -104.67256 5363 ft 2 kts 181°
2026-05-07 23:58 39.86387 -104.67255 5363 ft 3 kts 181°
2026-05-07 23:59 39.86406 -104.67255 5364 ft 2 kts 181°
2026-05-07 23:59 39.86411 -104.67255 5363 ft 0 kts 181°
2026-05-08 00:03 39.86408 -104.67258 5362 ft 1 kts 218°
2026-05-08 00:03 39.86411 -104.67271 5361 ft 4 kts 287°
2026-05-08 00:03 39.86439 -104.67320 5365 ft 10 kts 312°
2026-05-08 00:03 39.86477 -104.67407 5365 ft 13 kts 272°
2026-05-08 00:04 39.86478 -104.67547 5365 ft 17 kts 270°
2026-05-08 00:04 39.86480 -104.67715 5365 ft 20 kts 271°
2026-05-08 00:04 39.86481 -104.67903 5365 ft 21 kts 270°
2026-05-08 00:04 39.86482 -104.68075 5365 ft 16 kts 271°
2026-05-08 00:05 39.86439 -104.68194 5364 ft 15 kts 234°
2026-05-08 00:05 39.86429 -104.68323 5364 ft 13 kts 270°
2026-05-08 00:05 39.86368 -104.68388 5364 ft 13 kts 182°
2026-05-08 00:05 39.86281 -104.68389 5363 ft 12 kts 180°
2026-05-08 00:06 39.86195 -104.68390 5363 ft 12 kts 181°
2026-05-08 00:06 39.86112 -104.68391 5364 ft 12 kts 181°
2026-05-08 00:06 39.86032 -104.68394 5364 ft 11 kts 181°
2026-05-08 00:06 39.85953 -104.68394 5363 ft 11 kts 180°
2026-05-08 00:07 39.85858 -104.68395 5363 ft 16 kts 180°
2026-05-08 00:07 39.85737 -104.68396 5363 ft 18 kts 179°
2026-05-08 00:07 39.85618 -104.68396 5362 ft 17 kts 180°
2026-05-08 00:07 39.85502 -104.68398 5364 ft 16 kts 181°
2026-05-08 00:08 39.85391 -104.68400 5363 ft 16 kts 180°
2026-05-08 00:08 39.85285 -104.68401 5364 ft 15 kts 181°
2026-05-08 00:08 39.85205 -104.68460 5365 ft 14 kts 261°
2026-05-08 00:08 39.85204 -104.68588 5365 ft 14 kts 269°
2026-05-08 00:09 39.85202 -104.68711 5363 ft 14 kts 269°
2026-05-08 00:09 39.85200 -104.68847 5365 ft 16 kts 268°
2026-05-08 00:09 39.85197 -104.68989 5365 ft 16 kts 269°
2026-05-08 00:09 39.85196 -104.69113 5364 ft 4 kts 269°
2026-05-08 00:10 39.85197 -104.69179 5365 ft 21 kts 272°
2026-05-08 00:10 39.85199 -104.69314 5365 ft 15 kts 272°
2026-05-08 00:10 39.85201 -104.69428 5365 ft 6 kts 270°
2026-05-08 00:10 39.85201 -104.69479 5365 ft 6 kts 270°
2026-05-08 00:11 39.85202 -104.69517 5365 ft 8 kts 270°
2026-05-08 00:11 39.85203 -104.69598 5363 ft 9 kts 271°
2026-05-08 00:11 39.85224 -104.69662 5363 ft 8 kts 347°
2026-05-08 00:11 39.85241 -104.69662 5365 ft 0 kts 357°
2026-05-08 00:12 39.85252 -104.69663 5365 ft 13 kts 358°
2026-05-08 00:12 39.85791 -104.69652 5367 ft 102 kts
2026-05-08 00:12 39.86362 -104.69643 5362 ft 140 kts
2026-05-08 00:12 39.87438 -104.69594 5725 ft 157 kts 358°
2026-05-08 00:13 39.88470 -104.69825 6403 ft 156 kts 327°
2026-05-08 00:13 39.89191 -104.70987 6694 ft 181 kts 289°
2026-05-08 00:13 39.89159 -104.72656 7103 ft 188 kts 256°
2026-05-08 00:13 39.88697 -104.74273 7564 ft 198 kts 253°
2026-05-08 00:14 39.88181 -104.75963 8103 ft 202 kts 252°
2026-05-08 00:14 39.87653 -104.77681 8641 ft 207 kts 253°
2026-05-08 00:14 39.87104 -104.79457 9104 ft 219 kts 252°
2026-05-08 00:14 39.86527 -104.81361 9588 ft 229 kts 252°
2026-05-08 00:15 39.85899 -104.83289 10120 ft 240 kts 243°
2026-05-08 00:15 39.84564 -104.84756 10375 ft 271 kts 204°
2026-05-08 00:15 39.82633 -104.85023 10936 ft 292 kts 182°
2026-05-08 00:15 39.80486 -104.84936 11145 ft 324 kts 181°
2026-05-08 00:16 39.78132 -104.84836 11367 ft 352 kts 181°
2026-05-08 00:16 39.75645 -104.84746 11838 ft 368 kts 182°
2026-05-08 00:16 39.73064 -104.84674 12663 ft 373 kts 182°
2026-05-08 00:16 39.70460 -104.84620 13582 ft 375 kts 182°
2026-05-08 00:17 39.67840 -104.84582 14381 ft 379 kts 183°
2026-05-08 00:17 39.65173 -104.84555 15149 ft 385 kts 183°
2026-05-08 00:17 39.62469 -104.84534 15899 ft 390 kts 184°
2026-05-08 00:17 39.59736 -104.84517 16635 ft 395 kts 184°
2026-05-08 00:18 39.56967 -104.84500 17352 ft 400 kts 184°
2026-05-08 00:18 39.54198 -104.84484 18081 ft 405 kts 184°
2026-05-08 00:18 39.51363 -104.84468 18717 ft 409 kts 184°
2026-05-08 00:18 39.48505 -104.84451 19457 ft 411 kts 184°
2026-05-08 00:19 39.45634 -104.84433 20049 ft 416 kts 184°
2026-05-08 00:19 39.42721 -104.84417 20605 ft 421 kts 184°
2026-05-08 00:19 39.39770 -104.84400 21179 ft 426 kts 184°
2026-05-08 00:19 39.36776 -104.84382 21727 ft 430 kts 184°
2026-05-08 00:20 39.33796 -104.84364 22299 ft 435 kts 184°
2026-05-08 00:20 39.30755 -104.84345 22845 ft 440 kts 184°
2026-05-08 00:20 39.27683 -104.84327 23457 ft 442 kts 184°
2026-05-08 00:20 39.24604 -104.84307 23995 ft 444 kts 184°
2026-05-08 00:21 39.21503 -104.84288 24465 ft 448 kts 184°
2026-05-08 00:21 39.18366 -104.84269 24922 ft 452 kts 184°
2026-05-08 00:21 39.15203 -104.84251 25388 ft 455 kts 184°
2026-05-08 00:21 39.12031 -104.84329 25854 ft 455 kts 190°
2026-05-08 00:22 39.08918 -104.84973 26309 ft 450 kts 200°
2026-05-08 00:22 39.05916 -104.86127 26742 ft 451 kts 203°
2026-05-08 00:22 39.02911 -104.87351 27126 ft 454 kts 203°
2026-05-08 00:22 38.99921 -104.88567 27521 ft 457 kts 203°
2026-05-08 00:23 38.96870 -104.89789 27914 ft 460 kts 202°
2026-05-08 00:23 38.93784 -104.90980 28214 ft 464 kts 202°
2026-05-08 00:23 38.90684 -104.92180 28552 ft 465 kts 202°
2026-05-08 00:23 38.87582 -104.93394 28891 ft 467 kts 202°
2026-05-08 00:24 38.84469 -104.94609 29293 ft 468 kts 202°
2026-05-08 00:24 38.81343 -104.95824 29561 ft 472 kts 202°
2026-05-08 00:24 38.78183 -104.97049 29784 ft 476 kts 202°
2026-05-08 00:24 38.75011 -104.98272 30206 ft 475 kts 202°
2026-05-08 00:25 38.71881 -104.99474 30664 ft 474 kts 202°
2026-05-08 00:25 38.68715 -105.00690 30843 ft 474 kts 202°
2026-05-08 00:25 38.65544 -105.01907 31197 ft 476 kts 202°
2026-05-08 00:25 38.62361 -105.03128 31531 ft 476 kts 202°
2026-05-08 00:26 38.59184 -105.04345 31887 ft 477 kts 202°
2026-05-08 00:26 38.56040 -105.05551 32170 ft 479 kts 202°
2026-05-08 00:26 38.52843 -105.06775 32440 ft 481 kts 202°
2026-05-08 00:26 38.49638 -105.08000 32857 ft 480 kts 202°
2026-05-08 00:27 38.46439 -105.09221 33243 ft 480 kts 202°
2026-05-08 00:27 38.43234 -105.10443 33622 ft 480 kts 202°
2026-05-08 00:27 38.40036 -105.11661 33990 ft 479 kts 202°
2026-05-08 00:27 38.36840 -105.12877 34380 ft 477 kts 202°
2026-05-08 00:28 38.33673 -105.14080 34851 ft 472 kts 202°
2026-05-08 00:28 38.30539 -105.15269 35388 ft 468 kts 202°
2026-05-08 00:28 38.27429 -105.16449 35783 ft 466 kts 201°
2026-05-08 00:28 38.24309 -105.17637 35803 ft 471 kts 202°
2026-05-08 00:29 38.18011 -105.20030 35882 ft 472 kts 201°
2026-05-08 00:29 38.11808 -105.22371 35893 ft 464 kts 201°
2026-05-08 00:30 38.05624 -105.24707 35915 ft 464 kts 201°
2026-05-08 00:30 37.99428 -105.27045 35980 ft 465 kts 201°
2026-05-08 00:31 37.93214 -105.29385 36018 ft 465 kts 201°
2026-05-08 00:31 37.87077 -105.31968 36009 ft 462 kts 207°
2026-05-08 00:32 37.81223 -105.35200 36042 ft 461 kts 209°
2026-05-08 00:32 37.75357 -105.38534 36057 ft 463 kts 208°
2026-05-08 00:33 37.69458 -105.41824 36062 ft 463 kts 208°
2026-05-08 00:33 37.63533 -105.45078 36062 ft 464 kts 208°
2026-05-08 00:34 37.57632 -105.48298 36060 ft 465 kts 207°
2026-05-08 00:34 37.51685 -105.51533 36056 ft 466 kts 207°
2026-05-08 00:35 37.45732 -105.54774 36072 ft 465 kts 207°
2026-05-08 00:35 37.39797 -105.57999 36084 ft 464 kts 207°
2026-05-08 00:36 37.33867 -105.61215 36085 ft 464 kts 207°
2026-05-08 00:36 37.27981 -105.64402 36066 ft 463 kts 207°
2026-05-08 00:37 37.22056 -105.67603 36035 ft 463 kts 207°
2026-05-08 00:38 37.13173 -105.72396 36022 ft 463 kts 207°
2026-05-08 00:38 37.07283 -105.75567 36043 ft 463 kts 207°
2026-05-08 00:39 37.01354 -105.78752 36026 ft 463 kts 207°
2026-05-08 00:39 36.95415 -105.81937 36024 ft 464 kts 207°
2026-05-08 00:40 36.89500 -105.85104 36029 ft 464 kts 207°
2026-05-08 00:40 36.83583 -105.88267 36022 ft 463 kts 206°
2026-05-08 00:41 36.77646 -105.91435 36021 ft 463 kts 206°
2026-05-08 00:41 36.73705 -105.93535 36039 ft 463 kts 206°
2026-05-08 00:42 36.65793 -105.97744 36015 ft 464 kts 206°
2026-05-08 00:42 36.59849 -106.00900 36003 ft 464 kts 206°
2026-05-08 00:43 36.53897 -106.04055 36006 ft 464 kts 206°
2026-05-08 00:43 36.48956 -106.06670 36015 ft 464 kts 206°
2026-05-08 00:44 36.42014 -106.10337 35972 ft 465 kts 206°
2026-05-08 00:44 36.36051 -106.13478 35978 ft 464 kts 205°
2026-05-08 00:45 36.30138 -106.16595 35970 ft 464 kts 205°
2026-05-08 00:45 36.24179 -106.19729 35976 ft 464 kts 205°
2026-05-08 00:46 36.18257 -106.22837 35994 ft 464 kts 205°
2026-05-08 00:46 36.12298 -106.25958 36019 ft 463 kts 205°
2026-05-08 00:47 36.06393 -106.29046 36044 ft 462 kts 205°
2026-05-08 00:47 36.00464 -106.32143 36073 ft 462 kts 205°
2026-05-08 00:48 35.94547 -106.35228 36086 ft 461 kts 205°
2026-05-08 00:48 35.88646 -106.38299 36093 ft 461 kts 205°
2026-05-08 00:48 35.85677 -106.39843 35958 ft 461 kts 205°
2026-05-08 00:49 35.82720 -106.41381 35965 ft 461 kts 206°
2026-05-08 00:49 35.76825 -106.44436 35961 ft 462 kts 204°
2026-05-08 00:50 35.70894 -106.47515 35968 ft 462 kts 205°
2026-05-08 00:50 35.64969 -106.50579 35949 ft 463 kts 205°
2026-05-08 00:51 35.59015 -106.53653 35930 ft 463 kts 204°
2026-05-08 00:51 35.53089 -106.56704 35924 ft 463 kts 204°
2026-05-08 00:52 35.47137 -106.59766 35920 ft 462 kts 205°
2026-05-08 00:52 35.41222 -106.62806 35913 ft 462 kts 204°
2026-05-08 00:53 35.35325 -106.65830 35926 ft 461 kts 204°
2026-05-08 00:53 35.34325 -106.66343 35927 ft 461 kts 205°
2026-05-08 00:54 35.23495 -106.71885 35909 ft 459 kts 204°
2026-05-08 00:54 35.17639 -106.74875 35921 ft 458 kts 204°
2026-05-08 00:55 35.11744 -106.77882 36075 ft 457 kts 204°
2026-05-08 00:55 35.05884 -106.80875 36072 ft 457 kts 205°
2026-05-08 00:56 35.00543 -106.84941 36046 ft 454 kts 218°
2026-05-08 00:56 34.95518 -106.89640 35909 ft 454 kts 218°
2026-05-08 00:57 34.90494 -106.94327 35905 ft 454 kts 218°
2026-05-08 00:57 34.85475 -106.98948 35907 ft 454 kts 218°
2026-05-08 00:58 34.80406 -107.03581 35901 ft 454 kts 218°
2026-05-08 00:58 34.75340 -107.08196 35897 ft 455 kts 218°
2026-05-08 00:59 34.70280 -107.12801 35904 ft 456 kts 218°
2026-05-08 00:59 34.66040 -107.16655 35903 ft 457 kts 218°
2026-05-08 01:00 34.60954 -107.21271 35905 ft 458 kts 218°
2026-05-08 01:00 34.55830 -107.25914 35909 ft 459 kts 218°
2026-05-08 01:01 34.50724 -107.30535 35908 ft 460 kts 217°
2026-05-08 01:01 34.45571 -107.35190 35915 ft 460 kts 217°
2026-05-08 01:02 34.40449 -107.39809 35919 ft 460 kts 217°
2026-05-08 01:02 34.35325 -107.44422 35912 ft 461 kts 217°
2026-05-08 01:03 34.30161 -107.49066 35914 ft 462 kts 217°
2026-05-08 01:03 34.24992 -107.53707 35913 ft 462 kts 217°
2026-05-08 01:04 34.19838 -107.58326 35922 ft 460 kts 217°
2026-05-08 01:04 34.14723 -107.62904 35907 ft 460 kts 217°
2026-05-08 01:05 34.09591 -107.67489 35907 ft 458 kts 217°
2026-05-08 01:05 34.04466 -107.72062 35908 ft 457 kts 217°
2026-05-08 01:06 33.99347 -107.76621 35903 ft 458 kts 216°
2026-05-08 01:06 33.94178 -107.81219 35924 ft 465 kts 216°
2026-05-08 01:07 33.88985 -107.85830 35912 ft 457 kts 216°
2026-05-08 01:07 33.83916 -107.90325 35906 ft 451 kts 216°
2026-05-08 01:08 33.78876 -107.94788 35915 ft 453 kts 216°
2026-05-08 01:08 33.73781 -107.99292 35913 ft 455 kts 216°
2026-05-08 01:09 33.68670 -108.03803 35924 ft 456 kts 216°
2026-05-08 01:09 33.63582 -108.08288 35926 ft 457 kts 216°
2026-05-08 01:10 33.58526 -108.12737 35919 ft 444 kts 216°
2026-05-08 01:10 33.53554 -108.17106 35922 ft 443 kts 216°
2026-05-08 01:11 33.48575 -108.21475 35926 ft 444 kts 216°
2026-05-08 01:11 33.43606 -108.25830 35927 ft 445 kts 216°
2026-05-08 01:12 33.38598 -108.30211 35928 ft 446 kts 216°
2026-05-08 01:12 33.33574 -108.34600 35929 ft 446 kts 216°
2026-05-08 01:13 33.28552 -108.38981 35909 ft 445 kts 216°
2026-05-08 01:13 33.23582 -108.43311 35920 ft 443 kts 216°
2026-05-08 01:14 33.18599 -108.47645 35900 ft 442 kts 216°
2026-05-08 01:14 33.13633 -108.51959 35900 ft 441 kts 216°
2026-05-08 01:15 33.08664 -108.56269 35889 ft 441 kts 216°
2026-05-08 01:15 33.03728 -108.60544 35888 ft 441 kts 216°
2026-05-08 01:16 32.98764 -108.64837 35863 ft 440 kts 216°
2026-05-08 01:16 32.93810 -108.69116 35865 ft 438 kts 216°
2026-05-08 01:17 32.88878 -108.73369 35848 ft 437 kts 216°
2026-05-08 01:17 32.83952 -108.77612 35849 ft 436 kts 216°
2026-05-08 01:18 32.79055 -108.81824 35856 ft 437 kts 216°
2026-05-08 01:18 32.74099 -108.86081 35851 ft 439 kts 216°
2026-05-08 01:19 32.69165 -108.90312 35836 ft 440 kts 216°
2026-05-08 01:19 32.64197 -108.94568 35822 ft 440 kts 216°
2026-05-08 01:20 32.59223 -108.98822 35393 ft 444 kts 216°
2026-05-08 01:20 32.56723 -109.00959 34812 ft 442 kts 216°
2026-05-08 01:20 32.54227 -109.03090 34177 ft 441 kts 216°
2026-05-08 01:20 32.51733 -109.05217 33430 ft 443 kts 216°
2026-05-08 01:21 32.49228 -109.07353 32664 ft 443 kts 216°
2026-05-08 01:21 32.46723 -109.09488 31926 ft 444 kts 216°
2026-05-08 01:21 32.44256 -109.11588 31356 ft 440 kts 216°
2026-05-08 01:21 32.41782 -109.13693 30825 ft 436 kts 216°
2026-05-08 01:22 32.39322 -109.15786 30306 ft 433 kts 216°
2026-05-08 01:22 32.36885 -109.17857 29759 ft 430 kts 216°
2026-05-08 01:22 32.34464 -109.19914 29169 ft 426 kts 215°
2026-05-08 01:22 32.32066 -109.21949 28620 ft 422 kts 215°
2026-05-08 01:23 32.29710 -109.23989 28087 ft 417 kts 219°
2026-05-08 01:23 32.27784 -109.26528 27605 ft 414 kts 237°
2026-05-08 01:23 32.26535 -109.29536 27000 ft 414 kts 252°
2026-05-08 01:23 32.25952 -109.32849 26515 ft 410 kts 261°
2026-05-08 01:24 32.25553 -109.36181 26006 ft 408 kts 262°
2026-05-08 01:24 32.25175 -109.39478 25518 ft 405 kts 262°
2026-05-08 01:24 32.24789 -109.42767 25034 ft 402 kts 261°
2026-05-08 01:24 32.24392 -109.46033 24566 ft 400 kts 261°
2026-05-08 01:25 32.23982 -109.49295 24062 ft 400 kts 261°
2026-05-08 01:25 32.23567 -109.52543 23572 ft 400 kts 261°
2026-05-08 01:25 32.23147 -109.55800 23032 ft 403 kts 261°
2026-05-08 01:25 32.22720 -109.59089 22509 ft 407 kts 261°
2026-05-08 01:26 32.22297 -109.62353 22009 ft 406 kts 261°
2026-05-08 01:26 32.21872 -109.65626 21514 ft 401 kts 261°
2026-05-08 01:26 32.21451 -109.68865 21040 ft 396 kts 261°
2026-05-08 01:26 32.20970 -109.72045 20580 ft 391 kts 256°
2026-05-08 01:27 32.20306 -109.75148 20160 ft 388 kts 254°
2026-05-08 01:27 32.19577 -109.78220 19741 ft 385 kts 253°
2026-05-08 01:27 32.18841 -109.81253 19335 ft 384 kts 253°
2026-05-08 01:27 32.18106 -109.84298 18908 ft 387 kts 254°
2026-05-08 01:28 32.17386 -109.87326 18496 ft 388 kts 254°
2026-05-08 01:28 32.16665 -109.90393 18046 ft 386 kts 254°
2026-05-08 01:28 32.15957 -109.93426 17595 ft 382 kts 255°
2026-05-08 01:28 32.15257 -109.96437 17164 ft 378 kts 255°
2026-05-08 01:29 32.14566 -109.99416 16742 ft 374 kts 255°
2026-05-08 01:29 32.13878 -110.02375 16329 ft 371 kts 255°
2026-05-08 01:29 32.13198 -110.05302 15926 ft 369 kts 255°
2026-05-08 01:29 32.12521 -110.08211 15522 ft 367 kts 255°
2026-05-08 01:30 32.11845 -110.11113 15117 ft 366 kts 255°
2026-05-08 01:30 32.11173 -110.13997 14715 ft 364 kts 256°
2026-05-08 01:30 32.10509 -110.16840 14321 ft 363 kts 256°
2026-05-08 01:30 32.09838 -110.19711 13932 ft 362 kts 256°
2026-05-08 01:31 32.09169 -110.22572 13513 ft 361 kts 256°
2026-05-08 01:31 32.08500 -110.25429 13067 ft 359 kts 256°
2026-05-08 01:31 32.07839 -110.28249 12654 ft 354 kts 255°
2026-05-08 01:31 32.07186 -110.31029 12254 ft 349 kts 256°
2026-05-08 01:32 32.06544 -110.33760 11840 ft 339 kts 256°
2026-05-08 01:32 32.05938 -110.36405 11441 ft 329 kts 256°
2026-05-08 01:32 32.05368 -110.38946 11054 ft 321 kts 256°
2026-05-08 01:32 32.04804 -110.41467 10665 ft 314 kts 256°
2026-05-08 01:33 32.04250 -110.43936 10320 ft 307 kts 256°
2026-05-08 01:33 32.03709 -110.46347 10038 ft 300 kts 256°
2026-05-08 01:33 32.03176 -110.48714 9709 ft 299 kts 256°
2026-05-08 01:33 32.02639 -110.51093 9299 ft 301 kts 257°
2026-05-08 01:34 32.02104 -110.53457 8914 ft 303 kts 256°
2026-05-08 01:34 32.01563 -110.55848 8521 ft 300 kts 256°
2026-05-08 01:34 32.01026 -110.58213 8127 ft 295 kts 256°
2026-05-08 01:34 32.00497 -110.60540 7733 ft 292 kts 256°
2026-05-08 01:35 31.99976 -110.62835 7387 ft 288 kts 257°
2026-05-08 01:35 31.99458 -110.65116 7107 ft 287 kts 256°
2026-05-08 01:35 31.98944 -110.67382 6833 ft 285 kts 257°
2026-05-08 01:35 31.98437 -110.69604 6557 ft 283 kts 258°
2026-05-08 01:36 31.97929 -110.71834 6289 ft 281 kts 257°
2026-05-08 01:36 31.97430 -110.74029 6179 ft 272 kts 259°
2026-05-08 01:36 31.97406 -110.76169 6144 ft 254 kts 290°
2026-05-08 01:36 31.98246 -110.77898 6147 ft 236 kts 311°
2026-05-08 01:37 31.99294 -110.79386 5818 ft 234 kts 314°
2026-05-08 01:37 32.00409 -110.80778 5505 ft 233 kts 316°
2026-05-08 01:37 32.01541 -110.82117 5190 ft 226 kts 317°
2026-05-08 01:37 32.02628 -110.83395 4881 ft 215 kts 317°
2026-05-08 01:38 32.03662 -110.84608 4584 ft 205 kts 317°
2026-05-08 01:38 32.04637 -110.85754 4356 ft 196 kts 318°
2026-05-08 01:38 32.05596 -110.86877 4105 ft 192 kts 315°
2026-05-08 01:38 32.06537 -110.87982 3801 ft 188 kts 315°
2026-05-08 01:39 32.07451 -110.89055 3496 ft 180 kts 315°
2026-05-08 01:39 32.08301 -110.90055 3254 ft 164 kts 315°
2026-05-08 01:39 32.09076 -110.90978 3085 ft 151 kts 317°
2026-05-08 01:39 32.09805 -110.91818 2839 ft 142 kts 317°
2026-05-08 01:40 32.10476 -110.92609 2659 ft 130 kts 316°
2026-05-08 01:40 32.11042 -110.93270 2621 ft 92 kts 315°
2026-05-08 01:40 32.11423 -110.93714 2608 ft 68 kts 316°
2026-05-08 01:40 32.11681 -110.94016 2596 ft 28 kts 315°
2026-05-08 01:41 32.11793 -110.94095 2591 ft 17 kts 354°
2026-05-08 01:41 32.11891 -110.94097 2586 ft 10 kts 360°
2026-05-08 01:41 32.11957 -110.94098 2587 ft 3 kts 353°
2026-05-08 01:41 32.11976 -110.94104 2585 ft 3 kts 345°
2026-05-08 01:42 32.11996 -110.94104 2585 ft 3 kts
2026-05-08 01:42 32.12021 -110.94082 2590 ft 9 kts 59°
2026-05-08 01:42 32.11997 -110.94008 2592 ft 12 kts 132°
2026-05-08 01:42 32.11938 -110.93940 2592 ft 12 kts 136°
2026-05-08 01:43 32.11880 -110.93873 2592 ft 11 kts 134°
2026-05-08 01:43 32.11859 -110.93815 2585 ft 7 kts 62°
2026-05-08 01:43 32.11879 -110.93770 2591 ft 4 kts 63°
2026-05-08 01:43 32.11881 -110.93766 2589 ft 0 kts 63°